2024/05/13 11:50:00,0.0,14.4
2024/05/13 12:00:00,0.0,14.6
2024/05/13 12:10:00,0.0,14.8
2024/05/13 12:20:00,0.0,15.0
2024/05/13 12:30:00,0.0,15.1
2024/05/13 12:40:00,0.0,15.4
2024/05/13 12:50:00,0.0,15.5
2024/05/13 13:00:00,0.0,15.6
2024/05/13 13:10:00,0.0,15.8
2024/05/13 13:20:00,0.0,15.8
2024/05/13 13:30:00,0.0,15.8
2024/05/13 13:40:00,0.0,15.9
2024/05/13 13:50:00,0.0,16.0
2024/05/13 14:00:00,0.0,15.9
2024/05/13 14:10:00,0.0,16.1
2024/05/13 14:20:00,0.0,16.0
2024/05/13 14:30:00,0.0,15.9
2024/05/13 14:40:00,0.0,16.3
2024/05/13 14:50:00,0.0,16.8
2024/05/13 15:00:00,0.0,16.9
2024/05/13 15:10:00,0.0,17.4
2024/05/13 15:20:00,0.0,17.5
2024/05/13 15:30:00,0.0,17.6
2024/05/13 15:40:00,0.0,17.7
2024/05/13 15:50:00,0.0,17.4
2024/05/13 16:00:00,0.0,17.6
2024/05/13 16:10:00,0.0,17.3
2024/05/13 16:20:00,0.0,17.5
2024/05/13 16:30:00,0.0,16.7
2024/05/13 16:40:00,0.0,16.4
2024/05/13 16:50:00,0.0,16.4
2024/05/13 17:00:00,0.0,16.1
2024/05/13 17:10:00,0.0,16.3
2024/05/13 17:20:00,0.0,16.0
2024/05/13 17:30:00,0.0,15.7
2024/05/13 17:40:00,0.0,15.6
2024/05/13 17:50:00,0.0,15.3
2024/05/13 18:00:00,0.0,15.0
2024/05/13 18:10:00,0.0,14.6
2024/05/13 18:20:00,0.0,14.2
2024/05/13 18:30:00,0.0,13.6
2024/05/13 18:40:00,0.0,13.0
2024/05/13 18:50:00,0.0,12.4
2024/05/13 19:00:00,0.0,12.0
2024/05/13 19:10:00,0.0,11.8
2024/05/13 19:20:00,0.0,11.5
2024/05/13 19:30:00,0.0,11.3
2024/05/13 19:40:00,0.0,11.1
2024/05/13 19:50:00,0.0,10.9
2024/05/13 20:00:00,0.0,10.6
2024/05/13 20:10:00,0.0,10.4
2024/05/13 20:20:00,0.0,10.4
2024/05/13 20:30:00,0.0,10.2
2024/05/13 20:40:00,0.0,10.0
2024/05/13 20:50:00,0.0,9.9
2024/05/13 21:00:00,0.0,9.8
2024/05/13 21:10:00,0.0,9.8
2024/05/13 21:20:00,0.0,9.8
2024/05/13 21:30:00,0.0,9.8
2024/05/13 21:40:00,0.0,9.7
2024/05/13 21:50:00,0.0,9.7
2024/05/13 22:00:00,0.0,9.6
2024/05/13 22:10:00,0.0,9.5
2024/05/13 22:20:00,0.0,9.2
2024/05/13 22:30:00,0.0,9.4
2024/05/13 22:40:00,0.0,9.2
2024/05/13 22:50:00,0.0,9.0
2024/05/13 23:00:00,0.0,8.9
2024/05/13 23:10:00,0.0,8.7
2024/05/13 23:20:00,0.0,8.5
2024/05/13 23:30:00,0.0,8.6
2024/05/13 23:40:00,0.0,8.7
2024/05/13 23:50:00,0.0,8.8
